SL-16 DEB

Satellite information

Favourite Embed

Satellite Type and Status

DEBRISIN ORBIT

Key statistics

Satellite SL-16 DEB at a glance.

Uptime

12041

Days in orbit

Revolutions

≈ 13.8

Per day

Orbit

LEO

Low Earth Orbit

Inclination

70.9

Latest

Satellite identification and parameters

Extended collection of information and parameters for SL-16 DEB.

Object identification

Identified? True

Debris? True

Object name: SL-16 DEB

International designator: 1992-093CY

Object number (NORAD): 22407

Object ID (CCSDS): 22407

Country: COMMONWEALTH OF INDEPENDENT STATES (CIS)

Current information (Y/N): Y

RCS size: SMALL

Orbital parameters

Period: 104.045 minutes

Inclination: 70.8605 deg

SMA: 7327.804 km

Apoapsis: 1083.134 km

Periapsis: 816.204 km

RAAN: 316.541 deg

Eccentricy: 0.01821353

Argument of periapsis: 308.516 deg

Mean anomaly: 49.9734 deg

Mean motion: 13.84018852 rev/day

Mean motion (dot): 0.00000997 rev/day2

B* drag term: 0.00082494718 1/REarth

Two-line elements (TLE)

Creation date: Dec. 12, 2025, 10:14 a.m.

Reference frame: TEME

Reference center: EARTH

Epoch: Dec. 12, 2025, 6:41 a.m. UTC

TLE line 0: 0 SL-16 DEB

TLE line 1: 1 22407U 92093CY 25346.27899460 .00000997 00000-0 82495-3 0 9999

TLE line 2: 2 22407 70.8605 316.5410 0182135 308.5160 49.9734 13.84018852658179

Live tracking on map

Real-time ground track for satellite SL-16 DEB.

In-orbit conjunctions

A list of the most updated potential collisions computed for object SL-16 DEB.

Target Orbit TCA Probability of collision Miss distance Type
SL-8 R/B LEO 2025-11-18 08:58:25 0.008193643 10.0 (m) ROCKET BODY
THORAD AGENA D DEB SSO 2025-05-04 19:08:07 0.0002335334 68.0 (m) DEBRIS

Associated space launch

Second generation ELING satellite

SL-16 DEB was lifted into orbit during the mission ‘Zenit-2 | Tselina-2 12’, on board a Zenit-2 space rocket.

The launch took place on Dec. 25, 1992, 5:56 a.m. from 45/1.

For more information about the launch, click the button.

Launch to space Zenit-2 | Tselina-2 12
Zenit-2 | Tselina-2 12

Agency: N/A

Status: Launch Successful

Launch date: Dec. 25, 1992, 5:56 a.m. UTC

Rocket: Zenit-2

Launch pad: 45/1

Location: Baikonur Cosmodrome, Republic of Kazakhstan

...

Latest news about this satellite

There are no fresh news available about this satellite. Check back as we update our databases every day.


Newsletter sign-up

Weekly statistics, charts and insights to help you stay on top of the space industry.